Date,TemperatureHighF,TemperatureAvgF,TemperatureLowF,DewpointHighF,DewpointAvgF,DewpointLowF,HumidityHigh,HumidityAvg,HumidityLow,PressureMaxIn,PressureMinIn,WindSpeedMaxMPH,WindSpeedAvgMPH,GustSpeedMaxMPH,PrecipitationSumIn
2013-2-1,15.6,13.1,10.0,11.8,8.0,4.9,96,80,62,30.01,29.59,18,11,25,0.00
2013-2-2,21.9,16.2,10.8,21.0,13.9,5.1,99,90,74,30.00,29.69,12,5,17,0.00
2013-2-3,21.7,17.5,14.5,19.9,15.2,11.7,99,91,70,29.74,29.60,17,7,17,0.00
2013-2-4,25.3,19.5,14.7,22.4,17.9,12.7,99,93,86,29.77,29.60,10,3,14,0.00
2013-2-5,29.7,24.3,20.3,24.6,21.5,17.8,99,89,66,29.67,29.58,11,2,14,0.00
2013-2-6,36.0,24.8,14.5,26.4,17.6,10.4,99,77,36,30.05,29.68,10,3,12,0.07
2013-2-7,47.1,32.4,18.7,30.1,23.2,15.0,85,70,45,30.02,29.62,7,3,9,0.00
2013-2-8,38.7,30.2,23.4,37.5,28.9,23.1,99,95,79,29.96,29.50,16,2,22,0.14
2013-2-9,37.2,25.5,18.9,23.4,20.4,16.2,97,82,47,30.15,29.97,5,1,6,0.01
2013-2-10,47.8,35.5,23.5,35.3,21.4,17.6,83,59,33,30.04,29.59,6,4,11,0.00
2013-2-11,50.4,40.2,32.0,46.6,34.5,24.0,99,80,64,29.66,29.44,27,12,34,0.00
2013-2-12,36.7,30.3,23.7,26.5,24.4,22.8,97,79,64,29.82,29.67,19,7,24,0.00
2013-2-13,33.8,28.0,24.3,27.2,25.6,23.0,99,91,74,29.67,29.50,5,1,9,0.00
2013-2-14,36.7,31.7,24.6,36.4,30.7,24.4,99,96,81,29.64,29.55,20,6,21,0.01
2013-2-15,34.9,29.7,23.9,30.3,25.5,19.2,92,84,76,29.83,29.64,19,5,27,0.01
2013-2-16,28.9,22.6,15.8,21.6,18.1,12.2,99,84,52,29.82,29.69,11,3,12,0.00
2013-2-17,23.7,15.9,5.0,17.5,11.3,1.5,99,83,55,29.96,29.71,16,4,16,0.00
2013-2-18,44.6,26.7,4.6,31.7,17.0,1.7,90,69,47,29.98,29.51,10,4,12,0.02
2013-2-19,46.4,29.6,15.3,39.7,27.2,10.5,99,91,54,29.69,29.35,22,12,31,0.12
2013-2-20,20.7,17.1,14.0,16.9,12.7,8.9,98,83,63,29.94,29.70,21,10,24,0.00
2013-2-21,24.6,18.7,15.3,17.9,15.1,11.6,99,86,66,30.08,29.93,10,3,11,0.01
2013-2-22,37.2,28.4,17.1,36.8,26.9,14.2,99,94,83,30.01,29.67,10,4,11,0.01
2013-2-23,34.3,32.3,28.0,31.9,28.2,24.4,94,85,73,29.73,29.64,11,4,15,0.00
2013-2-24,32.2,28.4,25.0,25.6,23.3,19.9,87,81,73,29.89,29.64,11,5,14,0.00
2013-2-25,45.7,31.0,19.8,33.1,24.1,19.6,99,78,45,29.96,29.80,4,1,6,0.00
2013-2-26,36.7,33.0,28.8,36.4,29.6,23.0,99,87,69,29.84,29.28,9,5,12,0.59
2013-2-27,40.5,36.5,31.8,39.7,36.2,31.6,99,99,94,29.40,29.26,13,5,19,0.19
2013-2-28,33.3,31.4,28.9,33.0,31.2,28.7,99,99,98,29.63,29.34,13,3,16,0.01